This is the latest recevied weather packets stored in our database for station/object M0XZS-2. If no packets are shown the sender has not sent any weather packets the latest 10 day(s).
| Time | Temp. | Humidity | Pressure | Rain* | Wind** | Luminosity | Snow |
|---|---|---|---|---|---|---|---|
| 1777611154 | 11.11° C | 42% | 1024.3 hPa | - | - | - | - |
| 1777610254 | 11.11° C | 41% | 1024.4 hPa | - | - | - | - |
| 1777609353 | 10.56° C | 43% | 1024.5 hPa | - | - | - | - |
| 1777608453 | 11.11° C | 43% | 1024.5 hPa | - | - | - | - |
| 1777607553 | 11.11° C | 43% | 1024.8 hPa | - | - | - | - |
| 1777606653 | 11.11° C | 42% | 1024.9 hPa | - | - | - | - |
| 1777605753 | 11.67° C | 43% | 1024.9 hPa | - | - | - | - |
| 1777604853 | 11.67° C | 43% | 1025 hPa | - | - | - | - |
| 1777603953 | 11.67° C | 43% | 1025.2 hPa | - | - | - | - |
| 1777603055 | 11.67° C | 43% | 1025.3 hPa | - | - | - | - |
| 1777602155 | 12.22° C | 42% | 1025.4 hPa | - | - | - | - |
| 1777601254 | 12.22° C | 42% | 1025.5 hPa | - | - | - | - |
| 1777600354 | 12.78° C | 42% | 1025.5 hPa | - | - | - | - |
| 1777598554 | 12.22° C | 43% | 1026 hPa | - | - | - | - |
| 1777597654 | 12.22° C | 43% | 1026.1 hPa | - | - | - | - |
| 1777596754 | 12.22° C | 43% | 1026.1 hPa | - | - | - | - |
| 1777595854 | 12.22° C | 43% | 1026 hPa | - | - | - | - |
| 1777594954 | 12.78° C | 42% | 1026.1 hPa | - | - | - | - |
| 1777593154 | 12.78° C | 43% | 1026.3 hPa | - | - | - | - |
| 1777592254 | 12.78° C | 42% | 1026.4 hPa | - | - | - | - |
| 1777591354 | 13.33° C | 42% | 1026.4 hPa | - | - | - | - |
| 1777590454 | 13.33° C | 41% | 1026.6 hPa | - | - | - | - |
| 1777589554 | 13.89° C | 41% | 1026.6 hPa | - | - | - | - |
| 1777588654 | 13.89° C | 41% | 1026.7 hPa | - | - | - | - |
| 1777587753 | 15° C | 40% | 1026.8 hPa | - | - | - | - |
* Rain since midnight (hover to see other rain measurements)
** Current wind speed in m/s (hover to see current wind gust speed)